DW4466 Weather Reports


time (UTC)temp
C
wind
direction
speed
KPH
gust
KPH
rain 1hr
cm
rain 24hr
cm
rain mn
cm
humidity
%
barometer
mb
20260504130535 13 138 0.0 6.4 0.00 0.00 0.00 55 1013.0
20260504110548 6 345 0.0 3.2 0.00 0.00 0.00 87 1013.5
20260504100542 5 314 0.0 1.6 0.00 0.00 0.00 84 1013.4
20260504081505 5 314 0.0 3.2 0.00 0.00 0.00 85 1013.9
20260504081040 5 314 0.0 3.2 0.00 0.00 0.00 85 1013.9
20260504080511 5 231 0.0 0.0 0.00 0.00 0.00 86 1013.8
20260504050523 4 327 0.0 0.0 0.00 0.00 0.00 79 1014.6
20260504045530 4 327 0.0 3.2 0.00 0.00 0.00 79 1014.7
20260504045048 4 327 0.0 3.2 0.00 0.00 0.00 79 1014.8
20260504044519 5 351 0.0 0.0 0.00 0.00 0.00 80 1014.6
20260504044051 5 351 0.0 1.6 0.00 0.00 0.00 80 1014.5
20260504043519 5 351 0.0 3.2 0.00 0.00 0.00 79 1014.6
20260504043037 5 351 0.0 3.2 0.00 0.00 0.00 77 1014.5
20260504042509 5 23 0.0 3.2 0.00 0.00 0.00 76 1014.5
20260504042048 5 23 0.0 3.2 0.00 0.00 0.00 75 1014.5
20260504041529 5 23 1.6 3.2 0.00 0.00 0.00 76 1014.5
20260504041048 5 23 1.6 3.2 0.00 0.00 0.00 76 1014.4
20260504040508 5 23 1.6 3.2 0.00 0.00 0.00 79 1014.4
20260504040040 5 23 0.0 3.2 0.00 0.00 0.00 77 1014.5
20260504035508 5 293 0.0 0.0 0.00 0.00 0.00 74 1014.4
20260504035038 5 293 0.0 0.0 0.00 0.00 0.00 74 1014.4
20260504034506 5 293 0.0 0.0 0.00 0.00 0.00 75 1014.4
20260504034022 5 293 0.0 3.2 0.00 0.00 0.00 75 1014.5
20260504033553 5 293 0.0 3.2 0.00 0.00 0.00 74 1014.5
20260504033023 5 279 1.6 4.8 0.00 0.00 0.00 74 1014.4
20260504032557 5 268 1.6 4.8 0.00 0.00 0.00 72 1014.4
20260504032031 5 339 0.0 3.2 0.00 0.00 0.00 72 1014.3
20260504031507 6 339 1.6 3.2 0.00 0.00 0.00 75 1014.2
20260504031022 6 325 0.0 3.2 0.00 0.00 0.00 73 1014.2
20260504030558 6 325 0.0 3.2 0.00 0.00 0.00 73 1014.2
20260504030500 6 294 0.0 4.8 0.00 0.00 0.00 73 1014.2
20260504030026 6 288 0.0 4.8 0.00 0.00 0.00 70 1014.1
20260504025600 6 273 3.2 4.8 0.00 0.00 0.00 70 1014.1
20260504025503 6 271 3.2 4.8 0.00 0.00 0.00 69 1014.0
20260504025035 6 19 0.0 4.8 0.00 0.00 0.00 68 1013.9
20260504024550 6 34 1.6 4.8 0.00 0.00 0.00 68 1013.9
20260504024020 6 29 0.0 0.0 0.00 0.00 0.00 68 1014.0
20260504023556 6 23 0.0 0.0 0.00 0.00 0.00 68 1013.9
20260504023037 7 354 0.0 0.0 0.00 0.00 0.00 69 1013.9
20260504022506 7 354 0.0 0.0 0.00 0.00 0.00 67 1013.9
20260504022016 7 354 0.0 0.0 0.00 0.00 0.00 71 1013.9
20260504021551 7 354 0.0 0.0 0.00 0.00 0.00 68 1013.9
20260504021022 7 354 0.0 0.0 0.00 0.00 0.00 66 1013.7
20260504020600 7 354 0.0 0.0 0.00 0.00 0.00 64 1013.6
20260504020500 8 354 0.0 0.0 0.00 0.00 0.00 63 1013.6
20260504020028 8 354 0.0 0.0 0.00 0.00 0.00 58 1013.6
20260504015604 8 354 0.0 0.0 0.00 0.00 0.00 61 1013.5
20260504015504 8 354 0.0 0.0 0.00 0.00 0.00 62 1013.5
20260504015039 8 354 0.0 0.0 0.00 0.00 0.00 62 1013.5
20260504014523 8 354 0.0 0.0 0.00 0.00 0.00 62 1013.5
20260504014046 9 354 0.0 0.0 0.00 0.00 0.00 61 1013.4
20260504013518 9 354 0.0 0.0 0.00 0.00 0.00 58 1013.4
20260504013040 10 19 0.0 0.0 0.00 0.00 0.00 55 1013.3
20260504012506 10 42 0.0 0.0 0.00 0.00 0.00 50 1013.2
20260504012042 10 42 0.0 0.0 0.00 0.00 0.00 49 1013.2
20260504011512 10 42 0.0 0.0 0.00 0.00 0.00 47 1013.2
20260504011044 11 42 0.0 0.0 0.00 0.00 0.00 46 1013.1
20260504010516 11 42 0.0 0.0 0.00 0.00 0.00 45 1013.2
20260504010053 11 42 0.0 0.0 0.00 0.00 0.00 45 1013.2
20260504005522 11 42 0.0 0.0 0.00 0.00 0.00 42 1013.2
20260504005056 11 42 0.0 0.0 0.00 0.00 0.00 41 1013.2
20260504004526 12 42 0.0 0.0 0.00 0.00 0.00 42 1013.1
20260504004101 12 42 0.0 0.0 0.00 0.00 0.00 41 1013.1
20260504004003 12 42 0.0 0.0 0.00 0.00 0.00 42 1013.1
20260504003539 12 42 0.0 0.0 0.00 0.00 0.00 43 1013.1
20260504003008 13 42 0.0 0.0 0.00 0.00 0.00 41 1013.0
20260504002524 13 42 0.0 0.0 0.00 0.00 0.00 39 1012.9
20260504002058 13 42 0.0 0.0 0.00 0.00 0.00 38 1012.9
20260504001538 13 42 0.0 0.0 0.00 0.00 0.00 37 1012.8
20260504001100 13 42 0.0 1.6 0.00 0.00 0.00 36 1012.9
20260504001002 14 42 0.0 1.6 0.00 0.00 0.00 36 1012.9
20260504000536 14 42 0.0 3.2 0.00 0.00 0.00 36 1013.0
20260504000052 14 42 0.0 4.8 0.00 0.00 0.00 36 1013.0
20260503235524 15 22 1.6 6.4 0.00 0.00 0.00 36 1013.0
20260503235055 15 30 1.6 9.7 0.00 0.00 0.00 34 1012.9
20260503234524 15 39 4.8 11.3 0.00 0.00 0.00 35 1012.9
20260503234100 15 20 3.2 12.9 0.00 0.00 0.00 35 1012.8
20260503233531 15 13 6.4 12.9 0.00 0.00 0.00 34 1012.8
20260503233048 15 18 4.8 19.3 0.00 0.00 0.00 33 1012.8
20260503232514 15 45 9.7 19.3 0.00 0.00 0.00 33 1012.8
20260503232044 15 36 9.7 17.7 0.00 0.00 0.00 33 1012.7
20260503231514 16 58 8.0 14.5 0.00 0.00 0.00 34 1012.6
20260503231046 16 36 6.4 17.7 0.00 0.00 0.00 33 1012.7
20260503230503 16 54 11.3 17.7 0.00 0.00 0.00 33 1012.7
20260503230043 16 50 8.0 22.5 0.00 0.00 0.00 34 1012.6
20260503225510 16 48 14.5 24.1 0.00 0.00 0.00 33 1012.5
20260503225048 16 70 9.7 24.1 0.00 0.00 0.00 30 1012.4
20260503224514 16 48 11.3 22.5 0.00 0.00 0.00 33 1012.5
20260503224046 16 65 11.3 22.5 0.00 0.00 0.00 32 1012.5
20260503223520 16 38 6.4 16.1 0.00 0.00 0.00 33 1012.4
20260503223051 16 25 11.3 20.9 0.00 0.00 0.00 33 1012.5
20260503222528 16 49 9.7 20.9 0.00 0.00 0.00 31 1012.6
20260503222034 16 36 11.3 20.9 0.00 0.00 0.00 33 1012.6
20260503221508 16 55 11.3 25.7 0.00 0.00 0.00 32 1012.6
20260503221043 16 29 12.9 25.7 0.00 0.00 0.00 32 1012.6
20260503220514 16 32 8.0 20.9 0.00 0.00 0.00 34 1012.6
20260503220042 16 48 8.0 22.5 0.00 0.00 0.00 31 1012.6
20260503215557 16 27 16.1 24.1 0.00 0.00 0.00 32 1012.6
20260503215033 16 34 14.5 24.1 0.00 0.00 0.00 31 1012.7
20260503214508 16 63 16.1 22.5 0.00 0.00 0.00 31 1012.6
20260503214034 16 57 9.7 25.7 0.00 0.00 0.00 35 1012.7
20260503213506 16 10 14.5 27.4 0.00 0.00 0.00 35 1012.7
20260503213023 16 27 17.7 27.4 0.00 0.00 0.00 34 1012.6
20260503212554 16 48 9.7 25.7 0.00 0.00 0.00 33 1012.8
20260503212028 16 45 11.3 20.9 0.00 0.00 0.00 32 1012.8
20260503211506 16 49 8.0 22.5 0.00 0.00 0.00 36 1012.8
20260503211040 16 23 16.1 22.5 0.00 0.00 0.00 31 1012.9
20260503210509 16 17 14.5 22.5 0.00 0.00 0.00 35 1012.9
20260503210026 16 75 12.9 22.5 0.00 0.00 0.00 34 1013.0
20260503205559 16 36 6.4 24.1 0.00 0.00 0.00 33 1012.9
20260503205502 16 13 9.7 25.7 0.00 0.00 0.00 36 1012.9
20260503205036 15 47 16.1 25.7 0.00 0.00 0.00 33 1012.9
20260503204506 16 66 9.7 19.3 0.00 0.00 0.00 32 1012.8
20260503204038 16 11 8.0 17.7 0.00 0.00 0.00 32 1012.9
20260503203512 16 337 6.4 14.5 0.00 0.00 0.00 36 1013.0
20260503203053 16 28 6.4 20.9 0.00 0.00 0.00 34 1013.1
20260503202510 15 90 9.7 25.7 0.00 0.00 0.00 35 1013.0
20260503202044 15 90 16.1 25.7 0.00 0.00 0.00 32 1013.0
20260503201515 15 50 12.9 25.7 0.00 0.00 0.00 31 1013.0
20260503201028 15 50 8.0 24.1 0.00 0.00 0.00 37 1013.1
20260503200505 15 62 9.7 22.5 0.00 0.00 0.00 33 1013.2
20260503200038 15 70 8.0 30.6 0.00 0.00 0.00 35 1013.2
20260503195506 15 55 19.3 30.6 0.00 0.00 0.00 35 1013.4
20260503195037 15 51 12.9 25.7 0.00 0.00 0.00 38 1013.5
20260503194508 15 18 9.7 25.7 0.00 0.00 0.00 37 1013.7
20260503194023 15 55 16.1 29.0 0.00 0.00 0.00 31 1013.7
20260503193552 15 17 14.5 30.6 0.00 0.00 0.00 35 1013.8
20260503193032 15 25 16.1 30.6 0.00 0.00 0.00 36 1013.9
20260503192557 14 36 14.5 24.1 0.00 0.00 0.00 37 1014.0
20260503192031 14 43 9.7 24.1 0.00 0.00 0.00 33 1014.1
20260503191504 14 86 14.5 25.7 0.00 0.00 0.00 33 1014.3
20260503191039 14 100 16.1 38.6 0.00 0.00 0.00 36 1014.5
20260503190508 14 22 16.1 38.6 0.00 0.00 0.00 35 1014.4
20260503190039 14 11 12.9 25.7 0.00 0.00 0.00 39 1014.4
20260503185511 14 88 14.5 25.7 0.00 0.00 0.00 37 1014.5
20260503185049 14 75 12.9 27.4 0.00 0.00 0.00 36 1014.5
20260503184519 13 36 19.3 33.8 0.00 0.00 0.00 40 1014.5
20260503184056 13 41 16.1 33.8 0.00 0.00 0.00 37 1014.6
20260503183529 13 52 11.3 22.5 0.00 0.00 0.00 40 1014.6
20260503183057 13 58 8.0 24.1 0.00 0.00 0.00 44 1014.7
20260503182525 13 36 12.9 22.5 0.00 0.00 0.00 37 1014.7
20260503182059 13 52 8.0 27.4 0.00 0.00 0.00 38 1014.6
20260503182001 13 354 9.7 27.4 0.00 0.00 0.00 41 1014.6
20260503181533 13 352 12.9 27.4 0.00 0.00 0.00 42 1014.7
20260503181005 13 90 9.7 22.5 0.00 0.00 0.00 44 1014.8
20260503180541 12 43 12.9 27.4 0.00 0.00 0.00 38 1014.7
20260503180016 13 91 17.7 27.4 0.00 0.00 0.00 36 1014.7
20260503175529 13 48 14.5 33.8 0.00 0.00 0.00 45 1014.9
20260503175003 13 52 19.3 33.8 0.00 0.00 0.00 42 1014.9
20260503174538 12 57 9.7 22.5 0.00 0.00 0.00 44 1014.9
20260503174009 12 26 9.7 30.6 0.00 0.00 0.00 40 1014.9
20260503173539 12 61 19.3 33.8 0.00 0.00 0.00 41 1014.9
20260503173104 12 27 20.9 33.8 0.00 0.00 0.00 40 1015.0
20260503172525 12 67 17.7 30.6 0.00 0.00 0.00 43 1015.0
20260503172059 12 43 19.3 30.6 0.00 0.00 0.00 43 1015.0
20260503172003 12 45 14.5 25.7 0.00 0.00 0.00 47 1015.0
20260503171544 12 34 17.7 24.1 0.00 0.00 0.00 44 1015.0
20260503171003 12 56 12.9 19.3 0.00 0.00 0.00 43 1015.0
20260503170531 11 36 11.3 27.4 0.00 0.00 0.00 44 1015.1
20260503150554 9 27 17.7 29.0 0.00 0.00 0.00 49 1016.1